{"data":{"norad_id":38337,"epoch":"2026-09-19T16:05:14.180064Z","epoch_age_seconds":85984,"freshness":"FRESH","line1":"1 38337U 12025A   26262.67030301  .00000273  00000+0  70624-4 0  9996","line2":"2 38337  98.2074 201.8118 0001530  85.0910  34.8515 14.57136960762798","mean_motion":14.5713696,"eccentricity":0.000153,"inclination_deg":98.2074,"raan_deg":201.8118,"arg_perigee_deg":85.091,"mean_anomaly_deg":34.8515,"bstar":7.0624e-5,"rev_number":76279,"period_min":98.82392935802,"perigee_km":701.3502906313,"apogee_km":703.51694524039,"semimajor_km":7080.5706179358,"source":"CELESTRAK","updated_at":"2026-09-20T09:00:47.144678Z"}}